Time,TemperatureF,DewpointF,PressureIn,WindDirection,WindDirectionDegrees,WindSpeedMPH,WindSpeedGustMPH,Humidity,HourlyPrecipIn,Conditions,Clouds,dailyrainin,SoftwareType,DateUTC
2013-03-06 00:04:00,55.0,31.1,29.97,South,180,7.6,11.6,40,0.00,,,0.00,,2013-03-05 23:04:00,
2013-03-06 00:09:00,55.4,31.3,29.97,SE,135,8.9,12.0,40,0.00,,,0.00,,2013-03-05 23:09:00,
2013-03-06 00:14:00,55.4,30.7,29.94,SE,135,7.6,11.6,39,0.00,,,0.00,,2013-03-05 23:14:00,
2013-03-06 00:19:00,55.6,29.7,29.94,South,180,8.5,14.3,37,0.00,,,0.00,,2013-03-05 23:19:00,
2013-03-06 00:24:00,55.8,29.8,29.94,East,90,8.9,15.2,37,0.00,,,0.00,,2013-03-05 23:24:00,
2013-03-06 00:34:00,56.5,29.7,29.91,South,180,9.3,14.3,36,0.00,,,0.00,,2013-03-05 23:34:00,
2013-03-06 00:39:00,56.8,28.6,29.91,South,180,7.6,8.5,34,0.02,,,0.02,,2013-03-05 23:39:00,
2013-03-06 00:44:00,57.2,28.2,29.88,SE,135,9.8,14.3,33,0.02,,,0.02,,2013-03-05 23:44:00,
2013-03-06 00:49:00,57.7,26.4,29.88,ESE,112,10.7,20.1,30,0.02,,,0.02,,2013-03-05 23:49:00,
2013-03-06 00:54:00,57.9,27.3,29.91,SSE,157,9.3,13.8,31,0.02,,,0.02,,2013-03-05 23:54:00,
2013-03-06 00:59:00,58.3,25.2,29.91,SSE,157,9.8,12.9,28,0.02,,,0.02,,2013-03-05 23:59:00,
2013-03-06 01:04:00,58.6,25.5,29.91,South,180,10.2,12.9,28,0.02,,,0.02,,2013-03-06 00:04:00,
2013-03-06 01:09:00,58.3,26.8,29.94,WSW,247,8.5,9.8,30,0.00,,,0.02,,2013-03-06 00:09:00,
2013-03-06 01:14:00,57.9,27.3,29.94,SSE,157,7.6,8.9,31,0.00,,,0.02,,2013-03-06 00:14:00,
2013-03-06 01:19:00,57.7,27.1,29.94,ESE,112,9.3,9.3,31,0.00,,,0.02,,2013-03-06 00:19:00,
2013-03-06 01:24:00,57.6,27.0,29.91,SSE,157,9.8,14.7,31,0.00,,,0.02,,2013-03-06 00:24:00,
2013-03-06 01:29:00,57.4,28.4,29.91,SSE,157,9.8,12.9,33,0.00,,,0.02,,2013-03-06 00:29:00,
2013-03-06 01:34:00,57.6,28.6,29.91,SE,135,11.1,20.5,33,0.00,,,0.02,,2013-03-06 00:34:00,
2013-03-06 01:39:00,57.6,28.6,29.91,South,180,10.7,13.8,33,0.00,,,0.02,,2013-03-06 00:39:00,
2013-03-06 01:44:00,57.6,28.6,29.91,SSE,157,8.9,12.5,33,0.00,,,0.02,,2013-03-06 00:44:00,
2013-03-06 01:49:00,57.6,28.6,29.91,SE,135,10.2,14.7,33,0.00,,,0.02,,2013-03-06 00:49:00,
2013-03-06 01:54:00,57.6,28.6,29.91,SSE,157,9.8,12.9,33,0.00,,,0.02,,2013-03-06 00:54:00,
2013-03-06 01:59:00,57.6,29.3,29.91,SSW,202,9.8,17.4,34,0.00,,,0.02,,2013-03-06 00:59:00,
2013-03-06 02:04:00,57.6,29.3,29.91,SE,135,10.2,10.2,34,0.00,,,0.02,,2013-03-06 01:04:00,
2013-03-06 02:09:00,57.6,29.3,29.91,East,90,9.3,12.9,34,0.00,,,0.02,,2013-03-06 01:09:00,
2013-03-06 02:14:00,57.4,29.1,29.91,ESE,112,7.1,12.9,34,0.00,,,0.02,,2013-03-06 01:14:00,
2013-03-06 02:19:00,57.4,29.1,29.91,SSE,157,5.3,9.3,34,0.00,,,0.02,,2013-03-06 01:19:00,
2013-03-06 02:24:00,57.2,30.4,29.91,SE,135,5.8,8.9,36,0.00,,,0.02,,2013-03-06 01:24:00,
2013-03-06 02:29:00,57.2,30.4,29.91,SSE,157,7.6,12.0,36,0.00,,,0.02,,2013-03-06 01:29:00,
2013-03-06 02:34:00,57.0,30.2,29.91,East,90,6.2,13.4,36,0.00,,,0.02,,2013-03-06 01:34:00,
2013-03-06 02:39:00,57.0,30.2,29.91,East,90,4.9,4.9,36,0.00,,,0.02,,2013-03-06 01:39:00,
2013-03-06 02:44:00,57.0,30.2,29.94,NE,45,4.4,6.7,36,0.00,,,0.02,,2013-03-06 01:44:00,
2013-03-06 02:49:00,57.0,30.9,29.94,East,90,4.9,6.2,37,0.00,,,0.02,,2013-03-06 01:49:00,
2013-03-06 02:54:00,56.8,30.7,29.91,ESE,112,5.8,6.7,37,0.00,,,0.02,,2013-03-06 01:54:00,
2013-03-06 02:59:00,56.8,30.7,29.91,ESE,112,5.3,11.1,37,0.00,,,0.02,,2013-03-06 01:59:00,
2013-03-06 03:04:00,56.8,30.7,29.91,NE,45,4.4,5.3,37,0.00,,,0.02,,2013-03-06 02:04:00,
2013-03-06 03:09:00,56.8,30.7,29.91,South,180,1.7,4.4,37,0.00,,,0.02,,2013-03-06 02:09:00,
2013-03-06 03:14:00,56.7,32.5,29.94,ENE,67,3.1,4.0,40,0.00,,,0.02,,2013-03-06 02:14:00,
2013-03-06 03:19:00,55.9,32.5,29.94,NNW,337,2.2,2.2,41,0.00,,,0.02,,2013-03-06 02:19:00,
2013-03-06 03:24:00,56.1,32.5,29.94,ESE,112,2.2,2.2,41,0.00,,,0.02,,2013-03-06 02:24:00,
2013-03-06 03:29:00,56.1,32.5,29.94,SE,135,3.5,3.5,41,0.00,,,0.02,,2013-03-06 02:29:00,
2013-03-06 03:34:00,56.1,32.0,29.91,NNE,22,3.5,3.5,40,0.00,,,0.02,,2013-03-06 02:34:00,
2013-03-06 03:39:00,56.1,32.0,29.91,ENE,67,3.1,5.8,40,0.00,,,0.02,,2013-03-06 02:39:00,
2013-03-06 03:44:00,56.1,32.5,29.94,East,90,3.1,4.4,41,0.00,,,0.02,,2013-03-06 02:44:00,
2013-03-06 03:49:00,55.9,32.5,29.94,East,90,5.3,14.3,41,0.00,,,0.02,,2013-03-06 02:49:00,
2013-03-06 03:54:00,55.9,32.5,29.91,ESE,112,6.2,12.0,41,0.00,,,0.02,,2013-03-06 02:54:00,
2013-03-06 03:59:00,55.9,32.5,29.91,SSE,157,5.8,6.7,41,0.00,,,0.02,,2013-03-06 02:59:00,
2013-03-06 04:04:00,55.8,32.4,29.91,SSW,202,5.3,9.8,41,0.00,,,0.02,,2013-03-06 03:04:00,
2013-03-06 04:09:00,55.8,32.9,29.91,ESE,112,5.8,9.3,42,0.00,,,0.02,,2013-03-06 03:09:00,
2013-03-06 04:14:00,55.8,32.9,29.91,ENE,67,6.7,13.4,42,0.00,,,0.02,,2013-03-06 03:14:00,
2013-03-06 04:19:00,55.8,32.9,29.91,SE,135,9.8,12.5,42,0.00,,,0.02,,2013-03-06 03:19:00,
2013-03-06 04:24:00,55.8,32.4,29.91,ESE,112,9.8,15.2,41,0.00,,,0.02,,2013-03-06 03:24:00,
2013-03-06 04:29:00,55.9,32.5,29.91,ESE,112,11.6,12.0,41,0.00,,,0.02,,2013-03-06 03:29:00,
2013-03-06 04:34:00,55.9,32.5,29.91,South,180,8.0,9.3,41,0.00,,,0.02,,2013-03-06 03:34:00,
2013-03-06 04:39:00,55.9,31.8,29.91,SE,135,8.9,9.3,40,0.00,,,0.02,,2013-03-06 03:39:00,
2013-03-06 04:44:00,55.9,31.8,29.88,South,180,8.5,10.2,40,0.00,,,0.02,,2013-03-06 03:44:00,
2013-03-06 04:49:00,55.9,32.5,29.88,SSE,157,8.5,13.8,41,0.00,,,0.02,,2013-03-06 03:49:00,
2013-03-06 04:54:00,55.9,32.5,29.91,SE,135,9.3,10.2,41,0.00,,,0.02,,2013-03-06 03:54:00,
2013-03-06 04:59:00,55.9,31.8,29.91,East,90,7.6,9.3,40,0.00,,,0.02,,2013-03-06 03:59:00,
2013-03-06 05:04:00,55.9,32.5,29.88,ESE,112,8.5,16.1,41,0.00,,,0.02,,2013-03-06 04:04:00,
2013-03-06 05:09:00,55.9,31.8,29.88,South,180,8.5,9.3,40,0.00,,,0.02,,2013-03-06 04:09:00,
2013-03-06 05:14:00,56.1,32.0,29.85,SSE,157,7.1,12.0,40,0.00,,,0.02,,2013-03-06 04:14:00,
2013-03-06 05:19:00,56.3,32.2,29.85,SE,135,8.5,15.2,40,0.00,,,0.02,,2013-03-06 04:19:00,
2013-03-06 05:24:00,56.5,32.4,29.85,South,180,5.3,6.2,40,0.00,,,0.02,,2013-03-06 04:24:00,
2013-03-06 05:29:00,56.8,32.7,29.85,SSE,157,8.0,16.5,40,0.00,,,0.02,,2013-03-06 04:29:00,
2013-03-06 05:34:00,57.2,32.9,29.85,South,180,7.1,7.1,40,0.00,,,0.02,,2013-03-06 04:34:00,
2013-03-06 05:39:00,57.4,32.5,29.85,SSE,157,10.2,12.5,39,0.00,,,0.02,,2013-03-06 04:39:00,
2013-03-06 05:44:00,57.4,32.5,29.85,SSE,157,8.5,9.3,39,0.00,,,0.02,,2013-03-06 04:44:00,
2013-03-06 05:49:00,57.2,32.4,29.85,South,180,6.2,6.2,39,0.00,,,0.02,,2013-03-06 04:49:00,
2013-03-06 05:54:00,57.2,32.4,29.82,SSE,157,8.0,12.5,39,0.00,,,0.02,,2013-03-06 04:54:00,
2013-03-06 05:59:00,57.2,32.4,29.82,SSE,157,9.8,14.3,39,0.00,,,0.02,,2013-03-06 04:59:00,
2013-03-06 06:04:00,57.2,32.4,29.82,SSE,157,9.8,12.5,39,0.00,,,0.02,,2013-03-06 05:04:00,
2013-03-06 06:09:00,57.2,32.4,29.82,SSE,157,7.1,11.1,39,0.00,,,0.02,,2013-03-06 05:09:00,
2013-03-06 06:14:00,57.4,33.8,29.82,SSE,157,8.9,9.8,41,0.00,,,0.02,,2013-03-06 05:14:00,
2013-03-06 06:19:00,57.4,33.1,29.82,SE,135,9.8,13.4,40,0.00,,,0.02,,2013-03-06 05:19:00,
2013-03-06 06:24:00,57.4,33.1,29.79,SSE,157,5.3,8.0,40,0.00,,,0.02,,2013-03-06 05:24:00,
2013-03-06 06:29:00,57.6,33.3,29.79,SSE,157,8.9,14.3,40,0.00,,,0.02,,2013-03-06 05:29:00,
2013-03-06 06:34:00,57.6,32.7,29.82,SE,135,10.7,10.7,39,0.00,,,0.02,,2013-03-06 05:34:00,
2013-03-06 06:39:00,57.6,32.7,29.82,SSE,157,11.1,12.5,39,0.00,,,0.02,,2013-03-06 05:39:00,
2013-03-06 06:44:00,57.6,33.3,29.82,SSE,157,9.8,14.7,40,0.00,,,0.02,,2013-03-06 05:44:00,
2013-03-06 06:49:00,57.4,33.1,29.82,SSE,157,8.9,8.9,40,0.00,,,0.02,,2013-03-06 05:49:00,
2013-03-06 06:54:00,57.4,33.1,29.82,SE,135,11.6,14.3,40,0.00,,,0.02,,2013-03-06 05:54:00,
2013-03-06 06:59:00,57.4,33.8,29.82,ESE,112,11.6,18.7,41,0.00,,,0.02,,2013-03-06 05:59:00,
2013-03-06 07:04:00,57.4,33.8,29.82,ESE,112,11.6,18.7,41,0.00,,,0.02,,2013-03-06 06:04:00,
2013-03-06 07:09:00,57.0,33.4,29.82,South,180,9.8,11.6,41,0.00,,,0.02,,2013-03-06 06:09:00,
2013-03-06 07:14:00,57.0,33.4,29.79,SSE,157,11.6,16.1,41,0.00,,,0.02,,2013-03-06 06:14:00,
2013-03-06 07:19:00,57.0,33.4,29.79,South,180,8.5,10.7,41,0.00,,,0.02,,2013-03-06 06:19:00,
2013-03-06 07:24:00,57.0,33.4,29.82,South,180,10.7,12.5,41,0.00,,,0.02,,2013-03-06 06:24:00,
2013-03-06 07:29:00,57.0,33.4,29.82,SSE,157,11.6,15.6,41,0.00,,,0.02,,2013-03-06 06:29:00,
2013-03-06 07:34:00,56.8,33.8,29.82,South,180,12.0,17.4,42,0.00,,,0.02,,2013-03-06 06:34:00,
2013-03-06 07:39:00,56.7,34.3,29.82,SSE,157,9.8,10.7,43,0.00,,,0.02,,2013-03-06 06:39:00,
2013-03-06 07:44:00,56.7,33.8,29.79,SSE,157,9.3,14.3,42,0.00,,,0.02,,2013-03-06 06:44:00,
2013-03-06 07:49:00,57.0,34.0,29.79,SSW,202,9.3,14.3,42,0.00,,,0.02,,2013-03-06 06:49:00,
2013-03-06 07:54:00,57.2,34.2,29.85,SSE,157,11.6,20.1,42,0.00,,,0.02,,2013-03-06 06:54:00,
2013-03-06 07:59:00,57.2,34.9,29.85,South,180,9.3,13.8,43,0.00,,,0.02,,2013-03-06 06:59:00,
2013-03-06 08:05:00,57.2,35.4,29.85,South,180,10.7,10.7,44,0.00,,,0.02,,2013-03-06 07:05:00,
2013-03-06 08:09:00,57.2,36.0,29.85,ESE,112,10.7,15.2,45,0.00,,,0.02,,2013-03-06 07:09:00,
2013-03-06 08:14:00,57.2,37.0,29.85,East,90,12.5,16.1,47,0.00,,,0.02,,2013-03-06 07:14:00,
2013-03-06 08:19:00,57.2,37.6,29.85,SE,135,14.7,20.5,48,0.00,,,0.02,,2013-03-06 07:19:00,
2013-03-06 08:24:00,57.2,38.1,29.85,South,180,14.7,15.6,49,0.00,,,0.02,,2013-03-06 07:24:00,
2013-03-06 08:29:00,57.2,38.7,29.85,SE,135,12.9,17.0,50,0.00,,,0.02,,2013-03-06 07:29:00,
2013-03-06 08:34:00,57.0,38.5,29.82,SE,135,14.3,17.8,50,0.00,,,0.02,,2013-03-06 07:34:00,
2013-03-06 08:39:00,57.2,38.7,29.82,SE,135,14.3,22.8,50,0.00,,,0.02,,2013-03-06 07:39:00,
2013-03-06 08:44:00,57.2,39.2,29.85,ESE,112,12.9,17.0,51,0.00,,,0.02,,2013-03-06 07:44:00,
2013-03-06 08:49:00,57.0,39.0,29.85,SE,135,14.7,18.3,51,0.00,,,0.02,,2013-03-06 07:49:00,
2013-03-06 08:54:00,56.8,39.4,29.82,SSE,157,15.2,19.2,52,0.00,,,0.02,,2013-03-06 07:54:00,
2013-03-06 08:59:00,56.8,39.4,29.82,SSE,157,12.5,15.2,52,0.00,,,0.02,,2013-03-06 07:59:00,
2013-03-06 09:04:00,56.7,39.6,29.85,South,180,13.8,13.8,53,0.00,,,0.02,,2013-03-06 08:04:00,
2013-03-06 09:09:00,56.7,39.6,29.85,WSW,247,15.2,17.0,53,0.00,,,0.02,,2013-03-06 08:09:00,
2013-03-06 09:14:00,56.5,39.4,29.82,SSE,157,11.6,14.3,53,0.00,,,0.02,,2013-03-06 08:14:00,
2013-03-06 09:19:00,56.5,39.4,29.82,SSE,157,12.0,12.0,53,0.00,,,0.02,,2013-03-06 08:19:00,
2013-03-06 09:24:00,56.5,39.4,29.82,SSE,157,13.8,21.0,53,0.00,,,0.02,,2013-03-06 08:24:00,
2013-03-06 09:30:00,56.7,40.1,29.82,SSE,157,15.2,15.2,54,0.00,,,0.02,,2013-03-06 08:30:00,
2013-03-06 09:34:00,56.5,40.5,29.85,South,180,12.5,16.1,55,0.00,,,0.02,,2013-03-06 08:34:00,
2013-03-06 09:39:00,56.5,40.5,29.85,ESE,112,12.5,17.0,55,0.00,,,0.02,,2013-03-06 08:39:00,
2013-03-06 09:44:00,56.5,40.5,29.85,SE,135,12.9,12.9,55,0.00,,,0.02,,2013-03-06 08:44:00,
2013-03-06 09:50:00,56.5,40.8,29.85,SSE,157,12.5,19.2,56,0.00,,,0.02,,2013-03-06 08:50:00,
2013-03-06 09:55:00,56.3,40.6,29.82,ESE,112,13.4,19.6,56,0.00,,,0.02,,2013-03-06 08:55:00,
2013-03-06 10:00:00,56.5,40.8,29.82,East,90,13.8,14.3,56,0.00,,,0.02,,2013-03-06 09:00:00,
2013-03-06 10:05:00,56.5,40.8,29.82,East,90,13.8,14.3,56,0.00,,,0.02,,2013-03-06 09:05:00,
2013-03-06 10:10:00,56.5,40.8,29.79,SE,135,13.4,19.6,56,0.00,,,0.02,,2013-03-06 09:10:00,
2013-03-06 10:15:00,56.5,40.5,29.82,SSE,157,11.6,17.8,55,0.00,,,0.02,,2013-03-06 09:15:00,
2013-03-06 10:20:00,56.5,40.5,29.82,SSE,157,10.7,13.4,55,0.00,,,0.02,,2013-03-06 09:20:00,
2013-03-06 10:25:00,56.5,40.5,29.82,SSE,157,11.1,15.6,55,0.00,,,0.02,,2013-03-06 09:25:00,
2013-03-06 10:30:00,56.5,40.5,29.82,SE,135,14.3,19.2,55,0.00,,,0.02,,2013-03-06 09:30:00,
2013-03-06 10:35:00,56.5,40.5,29.82,SE,135,12.0,16.1,55,0.00,,,0.02,,2013-03-06 09:35:00,
2013-03-06 10:40:00,56.7,40.6,29.82,South,180,12.0,13.4,55,0.00,,,0.02,,2013-03-06 09:40:00,
2013-03-06 10:45:00,56.7,41.0,29.82,SE,135,10.7,18.7,56,0.00,,,0.02,,2013-03-06 09:45:00,
2013-03-06 10:50:00,56.7,40.6,29.82,SSE,157,13.4,14.7,55,0.00,,,0.02,,2013-03-06 09:50:00,
2013-03-06 10:55:00,56.7,41.0,29.79,ESE,112,13.8,18.7,56,0.00,,,0.02,,2013-03-06 09:55:00,
2013-03-06 11:00:00,56.7,41.5,29.79,South,180,10.2,11.1,57,0.00,,,0.02,,2013-03-06 10:00:00,
2013-03-06 11:05:00,56.5,42.3,29.79,SE,135,12.0,12.5,59,0.00,,,0.02,,2013-03-06 10:05:00,
2013-03-06 11:10:00,56.1,42.3,29.79,SSE,157,13.4,20.1,60,0.00,,,0.02,,2013-03-06 10:10:00,
2013-03-06 11:15:00,55.9,42.6,29.79,SSE,157,12.0,21.9,61,0.00,,,0.02,,2013-03-06 10:15:00,
2013-03-06 11:20:00,55.8,42.4,29.79,ESE,112,12.0,13.8,61,0.00,,,0.02,,2013-03-06 10:20:00,
2013-03-06 11:25:00,55.4,43.0,29.82,SSE,157,12.9,13.4,63,0.00,,,0.02,,2013-03-06 10:25:00,
2013-03-06 11:30:00,55.0,43.3,29.82,SSE,157,10.7,15.6,65,0.00,,,0.02,,2013-03-06 10:30:00,
2013-03-06 11:35:00,54.7,43.9,29.79,SSE,157,12.0,18.7,67,0.02,,,0.04,,2013-03-06 10:35:00,
2013-03-06 11:40:00,54.1,44.1,29.79,South,180,14.3,21.9,69,0.02,,,0.04,,2013-03-06 10:40:00,
2013-03-06 11:45:00,53.8,44.4,29.82,SE,135,12.9,19.2,71,0.02,,,0.04,,2013-03-06 10:45:00,
2013-03-06 11:55:00,53.2,45.1,29.82,ESE,112,13.4,14.3,74,0.04,,,0.06,,2013-03-06 10:55:00,
2013-03-06 12:00:00,53.1,45.0,29.82,SSE,157,12.5,14.7,74,0.06,,,0.08,,2013-03-06 11:00:00,
2013-03-06 12:05:00,52.9,45.1,29.79,SSE,157,12.9,17.0,75,0.03,,,0.11,,2013-03-06 11:05:00,
2013-03-06 12:10:00,52.5,45.1,29.79,SSE,157,12.5,13.8,76,0.03,,,0.11,,2013-03-06 11:10:00,
2013-03-06 12:15:00,52.5,45.5,29.79,SSE,157,13.4,13.4,77,0.05,,,0.13,,2013-03-06 11:15:00,
2013-03-06 12:20:00,52.5,45.7,29.79,SSE,157,12.5,17.0,78,0.05,,,0.13,,2013-03-06 11:20:00,
2013-03-06 12:25:00,52.3,45.9,29.79,SSE,157,11.6,17.0,79,0.07,,,0.15,,2013-03-06 11:25:00,
2013-03-06 12:30:00,52.5,46.4,29.79,SE,135,11.1,13.4,80,0.07,,,0.15,,2013-03-06 11:30:00,
2013-03-06 12:35:00,52.3,46.2,29.79,SE,135,11.1,14.7,80,0.07,,,0.15,,2013-03-06 11:35:00,
2013-03-06 12:40:00,52.2,46.4,29.79,SSE,157,10.2,13.8,81,0.09,,,0.17,,2013-03-06 11:40:00,
2013-03-06 12:45:00,52.2,46.8,29.79,SE,135,10.2,13.4,82,0.09,,,0.17,,2013-03-06 11:45:00,
2013-03-06 12:50:00,52.0,46.6,29.79,South,180,12.5,13.4,82,0.09,,,0.17,,2013-03-06 11:50:00,
2013-03-06 12:55:00,52.2,47.1,29.79,SSE,157,12.0,12.9,83,0.12,,,0.20,,2013-03-06 11:55:00,
2013-03-06 13:00:00,52.0,47.1,29.79,ESE,112,12.0,14.7,84,0.12,,,0.20,,2013-03-06 12:00:00,
2013-03-06 13:05:00,52.0,47.1,29.79,ESE,112,12.0,14.7,84,0.12,,,0.20,,2013-03-06 12:05:00,
2013-03-06 13:10:00,51.8,46.9,29.79,SSE,157,12.0,17.8,84,0.02,,,0.22,,2013-03-06 12:10:00,
2013-03-06 13:15:00,51.8,47.3,29.79,SE,135,12.5,16.1,85,0.02,,,0.22,,2013-03-06 12:15:00,
2013-03-06 13:20:00,51.6,47.1,29.79,SE,135,12.5,14.7,85,0.04,,,0.24,,2013-03-06 12:20:00,
2013-03-06 13:25:00,51.6,47.5,29.76,SE,135,11.6,20.1,86,0.06,,,0.26,,2013-03-06 12:25:00,
2013-03-06 13:30:00,51.6,47.5,29.76,South,180,11.1,16.1,86,0.08,,,0.28,,2013-03-06 12:30:00,
2013-03-06 13:35:00,51.4,47.7,29.76,South,180,12.0,16.1,87,0.11,,,0.31,,2013-03-06 12:35:00,
2013-03-06 13:40:00,51.4,47.7,29.76,SE,135,12.9,13.4,87,0.13,,,0.33,,2013-03-06 12:40:00,
2013-03-06 13:45:00,51.4,47.7,29.76,SSE,157,15.6,19.6,87,0.15,,,0.34,,2013-03-06 12:45:00,
2013-03-06 13:50:00,51.4,47.7,29.76,SSE,157,12.0,16.5,87,0.17,,,0.36,,2013-03-06 12:50:00,
2013-03-06 14:00:00,51.4,47.8,29.76,SSW,202,14.3,16.5,88,0.22,,,0.41,,2013-03-06 13:00:00,
2013-03-06 14:05:00,51.4,47.8,29.73,SSE,157,13.4,17.8,88,0.04,,,0.45,,2013-03-06 13:05:00,
2013-03-06 14:10:00,51.4,47.8,29.73,South,180,11.1,11.1,88,0.06,,,0.47,,2013-03-06 13:10:00,
2013-03-06 14:20:00,51.6,48.0,29.73,SSE,157,13.8,20.1,88,0.11,,,0.52,,2013-03-06 13:20:00,
2013-03-06 14:25:00,51.6,48.0,29.73,ESE,112,12.9,17.0,88,0.13,,,0.54,,2013-03-06 13:25:00,
2013-03-06 14:30:00,51.6,48.0,29.73,SSE,157,12.9,14.7,88,0.17,,,0.58,,2013-03-06 13:30:00,
2013-03-06 14:35:00,51.6,48.4,29.73,ESE,112,12.0,12.0,89,0.20,,,0.61,,2013-03-06 13:35:00,
2013-03-06 14:40:00,51.6,48.4,29.73,SE,135,13.8,17.0,89,0.24,,,0.65,,2013-03-06 13:40:00,
2013-03-06 14:45:00,51.8,48.6,29.73,SSE,157,14.3,19.2,89,0.29,,,0.70,,2013-03-06 13:45:00,
2013-03-06 14:50:00,51.8,48.6,29.73,South,180,12.0,19.6,89,0.31,,,0.72,,2013-03-06 13:50:00,
2013-03-06 14:55:00,51.8,48.6,29.73,SSW,202,14.7,25.5,89,0.33,,,0.74,,2013-03-06 13:55:00,
2013-03-06 15:05:00,52.0,48.7,29.73,ESE,112,13.8,16.1,89,0.03,,,0.81,,2013-03-06 14:05:00,
2013-03-06 15:10:00,52.0,48.4,29.73,SSE,157,11.1,13.8,88,0.05,,,0.83,,2013-03-06 14:10:00,
2013-03-06 15:15:00,52.2,48.6,29.76,South,180,12.9,16.5,88,0.07,,,0.85,,2013-03-06 14:15:00,
2013-03-06 15:20:00,52.2,48.9,29.76,SE,135,12.0,12.0,89,0.09,,,0.87,,2013-03-06 14:20:00,
2013-03-06 15:25:00,52.2,48.9,29.73,SE,135,12.0,12.5,89,0.09,,,0.87,,2013-03-06 14:25:00,
2013-03-06 15:34:00,52.3,49.1,29.73,South,180,11.6,14.3,89,0.16,,,0.94,,2013-03-06 14:34:00,
2013-03-06 15:39:00,52.2,48.9,29.73,SSW,202,12.5,21.9,89,0.18,,,0.96,,2013-03-06 14:39:00,
2013-03-06 15:44:00,52.3,49.1,29.73,SE,135,13.4,19.2,89,0.20,,,0.98,,2013-03-06 14:44:00,
2013-03-06 15:49:00,52.3,49.1,29.73,SSE,157,13.8,14.7,89,0.23,,,1.00,,2013-03-06 14:49:00,
2013-03-06 15:54:00,52.5,49.3,29.70,ESE,112,13.8,17.4,89,0.25,,,1.02,,2013-03-06 14:54:00,
2013-03-06 15:59:00,52.5,49.3,29.70,SSE,157,13.8,16.1,89,0.27,,,1.04,,2013-03-06 14:59:00,
2013-03-06 16:04:00,52.5,49.3,29.73,SSE,157,13.4,16.1,89,0.29,,,1.06,,2013-03-06 15:04:00,
2013-03-06 16:09:00,52.5,49.3,29.73,SSW,202,15.2,20.1,89,0.05,,,1.11,,2013-03-06 15:09:00,
2013-03-06 16:14:00,52.5,49.3,29.73,SSE,157,13.8,22.8,89,0.07,,,1.13,,2013-03-06 15:14:00,
2013-03-06 16:19:00,52.5,49.6,29.73,South,180,14.3,21.0,90,0.09,,,1.15,,2013-03-06 15:19:00,
2013-03-06 16:24:00,52.5,49.6,29.73,SE,135,13.8,17.4,90,0.09,,,1.15,,2013-03-06 15:24:00,
2013-03-06 16:29:00,52.5,49.6,29.73,SSE,157,12.0,20.1,90,0.11,,,1.17,,2013-03-06 15:29:00,
2013-03-06 16:34:00,52.7,49.8,29.73,SSE,157,15.2,17.4,90,0.11,,,1.17,,2013-03-06 15:34:00,
2013-03-06 16:39:00,52.7,49.8,29.73,SSE,157,15.6,15.6,90,0.14,,,1.20,,2013-03-06 15:39:00,
2013-03-06 16:44:00,52.9,50.0,29.70,South,180,13.8,20.1,90,0.14,,,1.20,,2013-03-06 15:44:00,
2013-03-06 16:49:00,52.9,50.0,29.70,SE,135,12.9,13.8,90,0.16,,,1.22,,2013-03-06 15:49:00,
2013-03-06 16:54:00,52.9,50.0,29.73,SSE,157,14.3,18.7,90,0.16,,,1.22,,2013-03-06 15:54:00,
2013-03-06 16:59:00,52.9,50.0,29.73,South,180,12.9,16.1,90,0.18,,,1.24,,2013-03-06 15:59:00,
2013-03-06 17:04:00,52.9,50.0,29.73,SSW,202,14.7,19.6,90,0.18,,,1.24,,2013-03-06 16:04:00,
2013-03-06 17:09:00,53.1,49.8,29.73,SSE,157,11.6,17.8,89,0.02,,,1.26,,2013-03-06 16:09:00,
2013-03-06 17:14:00,53.1,50.2,29.73,SSE,157,14.3,19.2,90,0.04,,,1.28,,2013-03-06 16:14:00,
2013-03-06 17:19:00,53.1,49.8,29.73,ENE,67,11.6,18.7,89,0.04,,,1.28,,2013-03-06 16:19:00,
2013-03-06 17:24:00,53.1,49.8,29.70,SE,135,13.4,20.5,89,0.07,,,1.31,,2013-03-06 16:24:00,
2013-03-06 17:29:00,53.1,50.2,29.70,SSE,157,14.7,22.8,90,0.09,,,1.33,,2013-03-06 16:29:00,
2013-03-06 17:34:00,53.1,50.2,29.70,SE,135,12.5,17.8,90,0.11,,,1.35,,2013-03-06 16:34:00,
2013-03-06 17:39:00,53.1,50.4,29.73,SE,135,12.5,13.4,91,0.13,,,1.37,,2013-03-06 16:39:00,
2013-03-06 17:44:00,53.1,50.4,29.70,SSW,202,9.3,12.5,91,0.13,,,1.37,,2013-03-06 16:44:00,
2013-03-06 17:49:00,53.1,50.4,29.70,South,180,12.9,14.3,91,0.16,,,1.40,,2013-03-06 16:49:00,
2013-03-06 17:54:00,53.1,50.4,29.73,SSE,157,12.9,19.2,91,0.18,,,1.42,,2013-03-06 16:54:00,
2013-03-06 17:59:00,53.2,50.5,29.73,East,90,11.6,17.4,91,0.20,,,1.44,,2013-03-06 16:59:00,
2013-03-06 18:04:00,53.2,50.5,29.73,SSE,157,9.8,20.1,91,0.22,,,1.46,,2013-03-06 17:04:00,
2013-03-06 18:09:00,53.2,50.5,29.73,SSE,157,11.1,17.4,91,0.02,,,1.48,,2013-03-06 17:09:00,
2013-03-06 18:14:00,53.4,50.7,29.73,SE,135,10.7,13.4,91,0.05,,,1.51,,2013-03-06 17:14:00,
2013-03-06 18:19:00,53.4,50.7,29.73,South,180,9.8,14.7,91,0.09,,,1.55,,2013-03-06 17:19:00,
2013-03-06 18:24:00,53.4,50.7,29.73,SSW,202,9.3,13.4,91,0.11,,,1.57,,2013-03-06 17:24:00,
2013-03-06 18:29:00,53.4,50.7,29.73,East,90,8.5,8.5,91,0.14,,,1.60,,2013-03-06 17:29:00,
2013-03-06 18:39:00,53.2,50.5,29.73,ESE,112,8.9,8.9,91,0.18,,,1.64,,2013-03-06 17:39:00,
2013-03-06 18:44:00,53.4,50.7,29.76,SE,135,12.5,20.1,91,0.18,,,1.64,,2013-03-06 17:44:00,
2013-03-06 18:49:00,53.4,51.1,29.76,SSE,157,9.3,11.6,92,0.22,,,1.67,,2013-03-06 17:49:00,
2013-03-06 18:54:00,53.4,51.1,29.73,South,180,9.8,13.4,92,0.25,,,1.70,,2013-03-06 17:54:00,
2013-03-06 18:59:00,53.4,51.1,29.73,South,180,9.8,15.6,92,0.27,,,1.72,,2013-03-06 17:59:00,
2013-03-06 19:04:00,53.4,51.1,29.76,SSE,157,11.1,13.4,92,0.29,,,1.74,,2013-03-06 18:04:00,
2013-03-06 19:14:00,53.4,51.1,29.73,SE,135,10.7,12.0,92,0.07,,,1.81,,2013-03-06 18:14:00,
2013-03-06 19:19:00,53.4,51.4,29.73,ESE,112,8.0,12.9,93,0.07,,,1.81,,2013-03-06 18:19:00,
2013-03-06 19:24:00,53.4,51.1,29.73,SSW,202,6.7,8.0,92,0.09,,,1.83,,2013-03-06 18:24:00,
2013-03-06 19:29:00,53.2,51.3,29.73,SSE,157,6.2,6.7,93,0.11,,,1.85,,2013-03-06 18:29:00,
2013-03-06 19:34:00,53.2,51.3,29.76,SE,135,7.1,9.3,93,0.11,,,1.85,,2013-03-06 18:34:00,
2013-03-06 19:39:00,53.2,51.3,29.76,East,90,6.7,8.0,93,0.11,,,1.85,,2013-03-06 18:39:00,
2013-03-06 19:44:00,53.2,51.3,29.73,SSE,157,8.5,12.5,93,0.13,,,1.87,,2013-03-06 18:44:00,
2013-03-06 19:49:00,53.2,51.4,29.73,ENE,67,5.8,6.2,94,0.16,,,1.90,,2013-03-06 18:49:00,
2013-03-06 19:54:00,53.2,51.4,29.76,East,90,8.5,8.5,94,0.16,,,1.90,,2013-03-06 18:54:00,
2013-03-06 19:59:00,53.4,51.6,29.76,SSE,157,8.5,9.8,94,0.18,,,1.92,,2013-03-06 18:59:00,
2013-03-06 20:04:00,53.4,51.6,29.73,SE,135,6.7,13.4,94,0.18,,,1.92,,2013-03-06 19:04:00,
2013-03-06 20:09:00,53.4,51.6,29.73,ESE,112,6.2,10.7,94,0.00,,,1.92,,2013-03-06 19:09:00,
2013-03-06 20:14:00,53.4,51.6,29.76,SE,135,7.6,9.3,94,0.00,,,1.92,,2013-03-06 19:14:00,
2013-03-06 20:19:00,53.4,51.6,29.76,SE,135,6.2,8.5,94,0.02,,,1.94,,2013-03-06 19:19:00,
2013-03-06 20:24:00,53.4,51.6,29.73,SW,225,4.4,6.2,94,0.02,,,1.94,,2013-03-06 19:24:00,
2013-03-06 20:29:00,53.4,51.6,29.73,West,270,4.0,7.6,94,0.02,,,1.94,,2013-03-06 19:29:00,
2013-03-06 20:34:00,53.4,51.6,29.76,East,90,3.5,7.6,94,0.04,,,1.96,,2013-03-06 19:34:00,
2013-03-06 20:39:00,53.4,51.6,29.76,SE,135,5.3,8.0,94,0.06,,,1.98,,2013-03-06 19:39:00,
2013-03-06 20:44:00,53.4,51.6,29.73,South,180,4.4,8.0,94,0.06,,,1.98,,2013-03-06 19:44:00,
2013-03-06 20:49:00,53.4,51.6,29.73,SSE,157,6.7,11.1,94,0.09,,,2.01,,2013-03-06 19:49:00,
2013-03-06 20:54:00,53.4,51.6,29.76,SSE,157,4.9,8.5,94,0.11,,,2.03,,2013-03-06 19:54:00,
2013-03-06 20:59:00,53.4,51.6,29.76,South,180,6.7,13.8,94,0.15,,,2.07,,2013-03-06 19:59:00,
2013-03-06 21:04:00,53.4,51.6,29.76,ENE,67,4.0,4.9,94,0.18,,,2.10,,2013-03-06 20:04:00,
2013-03-06 21:09:00,53.4,51.6,29.76,ESE,112,7.1,9.8,94,0.02,,,2.12,,2013-03-06 20:09:00,
2013-03-06 21:14:00,53.6,51.8,29.76,East,90,3.5,4.9,94,0.02,,,2.12,,2013-03-06 20:14:00,
2013-03-06 21:19:00,53.6,51.8,29.76,ESE,112,3.1,3.5,94,0.04,,,2.14,,2013-03-06 20:19:00,
2013-03-06 21:24:00,53.6,51.8,29.76,East,90,2.6,5.3,94,0.04,,,2.14,,2013-03-06 20:24:00,
2013-03-06 21:29:00,53.6,51.8,29.76,ESE,112,5.3,12.9,94,0.06,,,2.16,,2013-03-06 20:29:00,
2013-03-06 21:34:00,53.6,51.8,29.73,SSW,202,4.0,4.9,94,0.06,,,2.16,,2013-03-06 20:34:00,
2013-03-06 21:39:00,53.6,51.8,29.73,SE,135,3.1,6.7,94,0.06,,,2.16,,2013-03-06 20:39:00,
2013-03-06 21:44:00,53.6,51.8,29.76,NNE,22,3.1,4.0,94,0.06,,,2.16,,2013-03-06 20:44:00,
2013-03-06 21:49:00,53.6,51.8,29.76,South,180,2.6,3.5,94,0.08,,,2.18,,2013-03-06 20:49:00,
2013-03-06 21:54:00,53.6,51.8,29.76,SSE,157,4.4,5.8,94,0.08,,,2.18,,2013-03-06 20:54:00,
2013-03-06 21:59:00,53.4,51.6,29.76,ESE,112,2.2,2.6,94,0.08,,,2.18,,2013-03-06 20:59:00,
2013-03-06 22:04:00,53.4,51.6,29.76,South,180,1.7,3.5,94,0.11,,,2.21,,2013-03-06 21:04:00,
2013-03-06 22:09:00,53.4,51.6,29.76,SE,135,1.3,2.2,94,0.00,,,2.21,,2013-03-06 21:09:00,
2013-03-06 22:14:00,53.6,51.8,29.76,South,180,2.6,4.9,94,0.02,,,2.23,,2013-03-06 21:14:00,
2013-03-06 22:19:00,53.6,51.8,29.76,SE,135,4.4,9.3,94,0.02,,,2.23,,2013-03-06 21:19:00,
2013-03-06 22:24:00,53.4,51.6,29.76,ESE,112,5.8,9.3,94,0.02,,,2.23,,2013-03-06 21:24:00,
2013-03-06 22:29:00,53.4,51.6,29.76,South,180,3.5,5.8,94,0.02,,,2.23,,2013-03-06 21:29:00,
2013-03-06 22:34:00,53.4,51.6,29.76,North,0,2.6,6.7,94,0.02,,,2.23,,2013-03-06 21:34:00,
2013-03-06 22:39:00,53.4,51.6,29.76,ENE,67,2.2,3.1,94,0.04,,,2.25,,2013-03-06 21:39:00,
2013-03-06 22:44:00,53.4,51.6,29.76,SE,135,3.1,6.2,94,0.04,,,2.25,,2013-03-06 21:44:00,
2013-03-06 22:49:00,53.4,51.6,29.76,SE,135,1.7,2.6,94,0.04,,,2.25,,2013-03-06 21:49:00,
2013-03-06 22:54:00,53.4,51.6,29.76,NE,45,1.7,3.5,94,0.04,,,2.25,,2013-03-06 21:54:00,
2013-03-06 23:04:00,53.4,51.6,29.79,ESE,112,1.3,3.1,94,0.04,,,2.25,,2013-03-06 22:04:00,
2013-03-06 23:09:00,53.4,51.6,29.79,SE,135,0.8,1.7,94,0.00,,,2.25,,2013-03-06 22:09:00,
2013-03-06 23:14:00,53.4,51.6,29.73,SSE,157,1.7,4.0,94,0.02,,,2.27,,2013-03-06 22:14:00,
2013-03-06 23:24:00,53.4,51.6,29.76,WSW,247,3.5,8.5,94,0.02,,,2.27,,2013-03-06 22:24:00,
2013-03-06 23:34:00,53.4,51.6,29.76,NNE,22,0.8,3.1,94,0.02,,,2.27,,2013-03-06 22:34:00,
2013-03-06 23:39:00,53.4,51.6,29.76,NNE,22,0.8,3.1,94,0.02,,,2.27,,2013-03-06 22:39:00,
2013-03-06 23:44:00,53.4,52.0,29.76,NE,45,1.7,4.4,95,0.02,,,2.27,,2013-03-06 22:44:00,
2013-03-06 23:49:00,53.4,52.0,29.76,East,90,1.3,1.3,95,0.02,,,2.27,,2013-03-06 22:49:00,
2013-03-06 23:54:00,53.2,51.8,29.76,North,0,1.3,3.1,95,0.02,,,2.27,,2013-03-06 22:54:00,
2013-03-06 23:59:00,53.2,51.8,29.76,South,180,0.8,2.6,95,0.02,,,2.27,,2013-03-06 22:59:00,